GFSMA_sfc_dewp_021.txt.gz
Dewpoint
58 57 57 56 53 52 48 47 48 46 45 43 43 44 43 42 42 44 51 55 55 53 51 52 51 50 49 48 48 49 49 50 51 52 52 53 54 55 56 57 58 60 62
57 56 53 50 49 49 49 47 45 45 43 42 41 42 40 40 38 39 46 50 55 54 51 49 47 47 45 45 45 45 46 47 47 50 50 51 51 51 52 54 55 56 58
55 53 51 51 49 47 46 44 45 44 44 42 41 41 39 39 37 37 38 45 52 53 51 46 43 43 42 42 43 43 43 43 45 47 47 48 49 49 50 50 51 53 56
52 50 51 47 46 47 47 46 45 44 44 42 39 37 40 37 37 34 34 36 48 47 50 49 44 43 41 42 42 42 42 44 45 45 46 47 47 47 47 48 48 49 51
49 49 48 46 45 46 46 45 44 44 42 40 35 33 34 37 35 35 34 34 43 45 43 50 49 43 39 40 40 41 42 42 42 44 46 44 44 44 45 46 47 47 48
46 48 47 47 46 45 44 42 42 40 41 38 36 34 35 36 36 35 33 32 35 38 40 36 34 37 41 36 37 37 38 39 41 43 43 42 42 42 43 44 45 46 47
46 45 45 45 44 43 42 42 40 38 38 39 35 34 33 33 31 32 33 33 33 33 34 34 33 30 33 34 30 31 34 37 37 38 38 39 40 40 40 41 43 44 46
43 44 44 43 43 42 41 40 39 38 39 37 33 34 31 31 32 32 31 31 29 31 32 29 29 30 31 29 27 27 28 33 32 34 34 35 37 38 39 40 42 43 44
43 40 39 38 39 41 40 39 39 38 36 36 35 33 30 28 29 29 27 27 27 27 28 29 28 27 27 27 28 31 33 33 32 33 35 35 35 37 38 39 40 41 43
33 32 35 36 36 37 35 40 39 38 37 35 36 35 32 31 25 24 25 25 26 24 26 28 28 27 27 29 31 36 39 36 31 31 32 34 35 35 36 38 39 40 42
32 32 34 34 34 38 37 38 39 39 39 37 36 34 31 29 26 23 22 23 24 25 25 27 27 28 28 27 27 27 37 35 32 30 31 32 34 34 35 36 39 39 40
34 33 31 34 36 37 38 40 38 38 39 38 37 34 30 28 25 24 23 23 22 24 24 25 27 27 28 26 28 35 38 38 35 31 31 32 33 34 35 36 37 39 39
31 30 32 33 34 37 40 39 38 39 38 37 36 33 32 30 28 27 25 23 22 23 23 25 26 27 25 27 27 32 31 34 33 30 31 31 32 33 33 34 36 37 38
31 31 32 32 33 35 39 39 39 39 38 37 35 34 32 30 29 27 25 23 22 22 22 22 26 26 27 26 27 30 27 30 32 33 30 29 29 30 31 32 34 34 36
28 31 32 32 33 33 37 38 38 38 38 38 36 33 31 31 31 29 28 26 26 21 21 23 22 24 25 25 26 26 25 28 31 32 31 31 30 31 31 32 33 35 36
30 31 31 32 32 32 33 38 38 38 35 34 34 31 31 32 31 30 26 27 26 24 21 22 21 22 23 21 24 24 25 27 27 31 31 33 32 31 31 32 35 35 36
31 30 31 31 31 32 32 32 32 32 32 33 33 32 30 31 30 28 28 26 23 22 19 20 21 22 21 22 23 24 24 22 24 28 31 32 32 33 34 35 35 36 36
31 30 30 31 33 32 30 30 31 32 33 30 31 30 29 28 27 26 23 20 20 20 20 18 19 19 20 21 21 22 21 21 23 26 30 31 32 33 36 36 37 37 37
31 30 31 33 33 30 29 31 31 31 30 31 30 29 29 27 22 21 19 18 19 18 20 19 18 19 19 20 19 21 21 23 22 26 26 29 31 32 33 35 37 37 37
31 30 31 32 33 30 30 29 30 29 28 28 29 28 26 21 19 18 17 17 17 19 19 18 17 17 18 19 21 19 22 25 24 23 26 29 29 30 32 35 37 36 37
31 31 31 33 33 32 29 29 27 27 25 25 25 23 22 22 24 20 17 17 19 19 19 18 17 17 18 18 19 23 21 21 19 22 24 23 23 27 30 33 36 37 36
32 32 31 31 31 31 32 30 27 23 23 24 23 22 20 22 25 25 23 23 21 19 19 19 18 17 18 20 25 22 19 16 14 21 21 20 23 21 25 29 36 36 35
29 30 31 31 30 31 32 30 26 20 22 24 22 20 19 21 21 19 20 20 20 21 21 20 17 16 16 18 19 18 18 19 18 19 21 18 20 21 24 25 31 34 35
30 30 30 30 32 30 32 29 25 20 23 24 22 21 20 19 20 19 19 18 18 18 17 16 15 15 16 18 20 20 20 20 21 22 21 18 21 22 25 27 29 32 36
30 30 30 29 31 30 31 27 22 22 25 24 24 23 22 18 22 19 19 18 18 18 18 20 19 22 24 25 24 25 24 24 19 19 22 21 22 25 25 27 28 30 34
29 30 29 29 30 28 30 27 23 25 24 25 24 22 23 20 19 19 20 18 17 16 18 17 18 19 22 23 25 24 24 24 23 21 22 23 22 24 23 24 25 26 27

GFSMA_sfc_dewp_024.txt.gz
Dewpoint
56 56 53 51 50 48 47 46 45 43 43 41 42 40 40 40 38 43 49 54 55 54 51 52 51 49 49 48 48 47 47 47 48 49 50 49 50 50 51 51 52 53 55
55 52 50 49 48 48 46 44 43 43 42 41 40 38 40 38 37 36 41 47 55 55 52 50 48 47 45 45 45 44 44 46 47 47 47 48 48 48 48 49 50 50 51
53 51 50 48 46 47 45 45 44 44 43 41 37 36 40 37 37 35 36 42 52 54 53 47 44 43 42 43 42 43 44 46 44 44 47 46 45 46 46 47 47 48 49
51 50 47 45 46 46 45 44 44 43 42 39 36 34 36 37 35 34 32 40 48 47 50 49 45 43 42 41 40 40 42 42 41 42 45 45 44 44 44 44 45 46 47
50 48 46 45 45 45 44 43 42 41 40 38 36 34 36 36 35 32 31 33 42 44 43 45 45 43 39 37 37 38 39 40 40 41 43 42 42 42 42 42 43 44 45
48 47 45 45 44 43 42 41 37 38 38 38 35 33 33 34 33 33 32 31 33 34 34 32 33 37 41 33 32 33 35 37 38 37 38 38 39 39 40 40 41 42 43
45 44 45 43 43 42 41 40 38 36 36 37 33 33 33 33 32 31 31 29 29 31 30 32 32 31 31 34 31 30 32 33 34 34 34 35 36 37 38 39 39 40 42
43 43 43 43 42 40 39 39 37 37 38 36 33 33 29 31 30 29 29 28 26 28 27 28 28 28 29 28 31 36 33 30 32 33 34 34 35 36 37 37 38 39 40
40 38 37 36 36 37 36 37 38 36 35 36 34 32 29 28 28 29 26 25 25 26 26 27 26 26 27 27 31 34 36 33 29 30 33 34 34 35 36 36 37 38 39
35 35 34 35 35 36 35 36 40 38 36 35 35 34 31 30 25 23 25 25 25 24 25 27 27 27 28 27 29 33 37 36 29 29 31 33 34 35 35 36 36 37 38
34 34 34 34 36 37 37 39 38 38 38 37 35 34 30 28 26 24 22 23 24 25 25 26 26 27 27 27 26 28 37 37 32 30 31 32 34 34 34 35 36 37 38
34 32 33 33 34 37 39 38 38 38 37 37 36 34 30 27 26 24 23 23 22 23 24 24 25 26 28 28 29 33 32 31 30 30 31 32 33 34 34 35 35 36 37
32 31 32 32 33 37 39 38 38 38 37 36 35 33 32 31 29 27 25 23 22 23 23 25 25 26 26 28 28 30 30 30 29 29 30 31 31 31 32 33 34 35 36
32 32 32 32 33 33 37 38 38 38 37 36 35 34 33 31 30 29 26 24 22 22 23 22 25 26 26 25 27 29 26 27 28 29 29 28 28 29 31 32 33 34 36
31 31 31 31 32 32 31 36 38 37 36 36 35 35 33 31 31 30 29 27 26 20 21 22 22 23 24 24 25 25 24 27 27 27 28 30 29 30 30 30 32 33 34
32 31 31 31 31 31 33 35 37 37 36 33 33 33 31 33 31 31 27 28 26 25 22 21 20 21 22 20 23 24 24 25 26 27 29 29 29 30 30 31 31 34 34
32 31 31 30 30 33 32 31 30 31 32 33 33 32 32 31 30 28 27 24 22 21 19 19 20 21 20 21 21 23 23 22 24 25 27 27 29 30 31 32 34 35 35
32 31 31 30 31 33 31 29 30 31 32 30 30 30 29 28 27 25 22 19 19 18 19 17 18 18 19 19 20 21 20 21 22 25 26 26 28 28 31 32 32 34 36
31 31 30 30 31 33 31 31 31 31 31 30 30 29 29 27 24 22 19 18 18 17 19 18 17 18 18 19 19 21 22 21 24 24 22 23 27 28 27 27 30 34 36
32 30 31 32 33 33 31 31 30 29 28 27 28 27 25 22 19 18 17 16 17 18 19 18 18 18 18 18 20 20 22 22 20 18 20 22 24 25 25 26 29 32 37
31 31 32 32 33 32 31 31 28 27 26 25 25 22 21 22 25 20 17 18 19 19 19 18 18 18 17 18 18 21 22 19 18 19 19 23 20 23 25 25 27 30 35
32 32 32 33 32 31 32 33 29 25 24 23 23 22 20 22 25 26 24 22 20 18 18 18 18 16 16 15 20 18 18 17 17 20 20 20 22 21 22 24 27 31 31
30 31 30 31 31 32 33 33 30 22 22 23 24 20 19 21 22 19 20 19 18 18 18 19 16 16 15 15 16 18 19 20 19 20 22 20 21 21 22 23 27 29 32
31 30 30 31 31 32 33 32 28 21 22 24 23 21 21 20 20 19 18 17 17 18 18 16 18 17 17 19 22 23 25 25 23 22 22 20 20 21 23 25 28 30 32
31 30 30 30 30 31 33 31 25 21 23 24 24 23 22 20 22 22 19 18 17 17 17 20 20 22 22 23 24 25 22 22 19 20 22 24 21 22 23 25 26 31 32
29 30 30 30 31 29 32 31 25 24 24 25 24 23 24 20 24 22 21 20 17 16 17 18 18 18 20 21 23 23 23 21 21 19 23 24 22 21 20 25 25 24 28

GFSMA_sfc_dewp_027.txt.gz
Dewpoint
55 54 51 50 48 47 46 45 43 42 41 40 39 38 39 37 37 39 43 52 54 53 49 52 51 49 49 48 47 47 47 48 49 48 48 48 48 48 48 48 49 49 50
52 50 49 48 48 46 45 44 43 43 41 39 37 39 37 37 35 35 38 42 53 55 52 50 48 47 46 45 45 45 47 47 46 46 48 46 45 46 46 46 47 47 48
51 49 47 46 46 45 44 43 43 43 41 38 35 35 37 36 34 33 36 41 50 53 53 47 46 43 43 43 42 42 44 43 43 43 45 45 45 44 44 44 45 45 46
50 47 46 46 45 45 44 43 42 41 40 37 35 34 36 35 34 32 33 43 47 46 47 49 45 43 42 40 41 41 41 41 41 41 43 43 42 42 42 42 43 43 44
48 46 45 45 44 43 43 41 39 39 37 36 36 34 34 34 33 31 31 33 35 41 39 42 43 41 36 34 34 35 37 38 39 40 39 39 39 39 40 41 41 41 42
47 45 45 44 43 41 40 38 36 37 38 38 34 33 33 32 32 32 29 28 29 30 32 32 31 31 38 36 34 34 35 36 36 37 36 36 36 37 38 39 39 40 40
45 44 44 43 42 41 39 38 37 36 37 36 33 33 33 32 30 29 29 27 27 27 28 30 31 29 29 36 38 36 35 35 35 36 35 36 36 36 36 38 38 38 39
43 43 43 41 40 39 38 38 37 37 37 36 33 32 29 30 30 28 27 26 25 26 26 26 26 26 27 27 32 32 34 34 35 35 34 34 35 35 36 36 37 37 38
40 38 36 36 35 35 35 36 38 36 35 35 34 32 29 27 28 28 25 25 24 25 26 27 25 27 26 26 29 33 33 30 30 31 32 33 34 35 36 36 36 37 38
35 34 34 36 37 37 36 37 39 38 36 34 35 33 31 29 26 24 25 25 26 23 24 26 25 26 27 27 29 31 34 37 33 31 32 33 34 35 36 36 36 36 37
35 34 35 35 36 37 38 38 38 37 37 36 35 34 31 28 26 24 22 23 25 25 25 25 25 27 26 27 27 30 35 34 32 32 33 34 35 35 36 36 36 36 37
34 34 32 35 36 39 38 38 37 37 36 36 36 34 30 27 26 25 23 23 23 23 24 25 25 26 27 28 28 32 31 30 30 31 32 33 34 35 35 35 35 36 36
32 32 33 34 35 39 39 38 38 37 36 35 35 34 32 31 29 27 25 24 23 23 23 25 26 26 26 26 27 29 30 29 29 29 30 31 31 31 32 33 34 35 36
33 33 33 34 33 33 37 38 38 37 36 36 34 34 34 32 30 29 26 24 23 23 23 23 25 24 24 25 26 27 25 28 27 27 28 28 29 30 31 32 32 33 34
33 34 33 33 32 31 31 34 37 36 36 35 35 33 34 32 31 30 29 27 27 22 21 22 22 23 23 23 23 23 24 25 25 25 27 27 28 30 30 31 31 32 33
34 33 33 32 31 30 32 33 37 38 35 33 33 33 32 31 31 30 27 27 27 27 25 23 20 20 21 20 21 22 23 25 26 27 25 26 27 29 30 30 31 31 32
33 33 33 32 30 31 32 32 31 30 31 32 32 32 31 31 30 29 28 25 22 21 19 18 20 20 19 19 19 21 23 22 23 25 27 27 26 26 27 29 31 31 31
33 32 32 30 30 32 32 30 29 29 30 31 29 30 30 29 28 27 24 21 19 18 18 16 18 18 18 18 19 20 20 20 22 25 25 24 24 24 24 30 29 28 29
32 31 31 30 31 32 32 30 30 30 31 30 30 29 29 29 26 23 21 19 18 17 19 18 18 19 19 19 18 20 21 21 22 23 22 22 23 24 25 26 26 27 27
32 31 31 31 33 31 31 31 30 30 30 29 29 29 28 26 22 20 19 17 16 17 18 18 18 17 18 19 20 19 17 19 18 17 21 22 23 25 26 25 25 26 28
32 31 31 33 32 32 31 31 30 29 28 27 26 23 23 23 24 21 17 17 18 19 18 17 16 17 17 16 15 15 16 17 19 20 20 20 21 23 23 25 26 27 28
32 31 31 32 32 31 33 34 31 28 26 25 24 23 21 24 27 28 26 25 21 18 17 17 17 16 15 15 16 16 18 18 17 21 21 21 22 21 22 23 26 27 28
33 33 33 31 32 32 33 35 33 26 25 24 24 23 20 19 25 24 25 23 20 20 20 18 16 16 16 16 17 18 20 21 20 22 23 20 21 20 21 22 27 29 30
36 34 31 31 30 30 33 34 32 24 23 23 24 22 21 20 22 20 18 18 17 18 17 16 17 18 18 19 20 21 25 24 23 22 22 20 20 21 22 24 27 31 31
33 31 30 29 30 30 33 34 30 22 22 23 24 23 22 21 23 25 21 19 18 18 17 20 20 21 22 22 21 21 20 20 18 18 20 22 21 21 23 24 26 28 30
30 30 30 30 30 29 31 34 30 24 23 24 24 24 28 24 24 25 22 20 19 19 17 16 18 20 20 20 21 20 21 20 18 17 21 21 20 24 21 22 24 25 24

GFSMA_sfc_dewp_030.txt.gz
Dewpoint
54 52 50 48 47 46 45 44 43 41 40 38 40 38 38 37 37 38 40 47 54 54 49 53 51 51 50 48 47 48 50 47 47 49 49 47 47 47 47 47 46 47 47
51 49 48 48 46 45 44 43 43 41 39 37 38 38 38 35 34 38 40 43 55 55 53 52 49 48 47 45 45 46 45 45 45 47 46 47 46 45 45 45 45 45 45
50 47 47 46 45 44 44 43 42 41 38 37 35 37 37 35 34 36 43 48 48 52 52 49 47 45 45 44 42 43 43 42 42 42 46 44 43 42 42 43 43 43 44
49 46 46 45 45 44 43 42 40 39 38 37 35 36 35 34 33 34 36 44 45 42 45 49 45 44 40 38 37 38 40 40 40 40 43 41 40 40 40 41 41 42 42
46 46 45 44 43 42 42 39 39 38 36 37 35 34 34 33 32 29 31 33 36 35 34 41 41 42 40 37 36 36 36 37 38 38 39 38 38 38 38 38 39 40 40
46 45 44 43 42 40 38 37 36 38 38 37 33 33 33 33 32 30 29 27 29 31 32 33 33 34 37 36 36 36 36 36 37 37 37 37 37 37 37 37 37 38 38
44 44 43 42 41 39 39 38 37 36 36 35 34 34 33 33 30 29 28 28 27 28 30 30 30 30 29 35 34 33 34 35 36 36 37 37 36 35 36 36 37 37 38
44 43 42 41 39 38 37 38 37 37 37 36 33 32 30 31 31 29 27 27 27 27 28 28 29 29 29 28 34 31 32 32 33 33 33 33 34 34 35 36 37 37 37
42 39 37 36 35 35 35 37 37 36 35 35 34 33 29 27 29 30 27 27 27 27 28 28 28 29 29 28 29 32 34 35 32 33 33 33 33 35 35 36 36 37 37
36 35 36 37 37 37 37 39 38 38 36 34 35 34 32 31 28 27 27 26 27 25 27 28 28 29 29 29 30 32 34 36 35 34 34 34 34 35 36 36 36 37 37
35 35 36 36 37 38 39 39 38 37 37 36 35 34 32 29 27 25 23 24 25 26 27 27 27 27 28 29 29 33 34 33 33 34 34 35 35 35 36 36 36 36 36
35 34 34 35 37 40 38 38 38 36 36 36 36 35 32 29 27 25 24 24 24 25 25 27 27 27 29 28 27 31 31 32 31 32 33 34 35 35 35 35 35 35 35
35 34 34 34 37 40 39 38 37 36 36 35 35 34 33 32 31 28 26 25 24 24 24 26 27 27 24 26 27 27 28 28 28 29 30 30 31 32 33 33 34 34 35
33 33 35 34 34 38 38 38 38 37 37 36 35 34 34 33 32 29 27 25 24 24 24 24 26 25 24 24 25 25 24 27 26 26 27 28 29 30 31 32 32 33 34
33 34 34 36 35 33 34 36 38 37 37 36 35 34 33 33 32 31 29 27 27 27 23 24 23 24 23 23 23 24 23 25 26 26 27 28 27 28 28 30 31 32 32
33 35 36 34 33 33 34 34 35 37 36 36 34 32 33 32 31 31 29 29 28 26 25 26 23 22 21 19 21 22 21 25 25 26 27 27 28 28 28 28 28 29 30
36 36 34 33 32 32 33 33 35 35 33 31 32 32 32 32 31 30 28 28 26 25 25 20 20 20 19 19 19 20 22 22 23 25 25 26 26 25 25 26 27 27 31
35 33 34 32 32 32 33 32 30 29 30 31 31 31 31 31 30 29 27 25 21 20 18 16 18 18 18 19 19 19 19 19 21 24 25 24 24 25 25 25 26 27 29
34 33 32 32 32 33 33 32 31 30 30 30 31 30 29 29 28 26 24 22 20 18 19 19 17 19 19 19 18 19 20 20 20 22 22 23 25 26 26 26 27 27 27
33 32 33 33 33 33 32 32 31 30 30 30 30 30 29 29 27 25 22 20 18 18 18 18 18 17 16 18 19 18 15 16 17 18 21 23 25 26 26 27 27 28 27
33 32 33 33 33 34 31 32 31 30 29 29 29 28 28 28 28 23 19 19 17 18 18 18 16 15 15 15 16 15 15 18 19 20 20 20 22 24 25 25 26 27 28
33 32 32 33 35 33 33 34 33 30 29 27 26 25 23 27 29 31 30 24 20 20 18 16 15 15 14 15 17 17 18 17 16 22 21 21 22 22 22 24 25 27 29
34 35 36 36 35 33 34 35 35 30 28 27 25 24 22 19 25 23 28 28 26 24 22 19 16 15 16 17 17 18 18 20 20 21 22 20 20 21 22 21 25 28 31
38 38 37 34 32 30 33 34 34 31 27 26 24 24 23 21 22 22 22 21 19 18 18 18 17 16 18 18 19 19 21 21 21 20 20 18 20 21 22 23 26 28 29
38 36 34 33 31 30 32 33 33 29 25 24 23 24 23 22 24 27 22 20 18 18 20 23 21 22 23 23 22 21 18 18 17 16 18 19 21 21 23 24 26 27 28
34 34 30 30 30 29 31 32 33 26 25 25 24 25 29 24 26 27 25 22 20 18 20 17 16 19 21 20 22 20 18 18 17 15 20 20 19 22 21 24 25 26 27

GFSMA_sfc_dewp_033.txt.gz
Dewpoint
58 53 52 50 48 47 47 46 45 43 43 41 41 40 39 40 41 39 40 54 55 54 50 55 53 52 49 48 48 49 47 46 48 48 48 47 46 45 45 45 45 45 46
55 52 50 48 47 47 46 45 44 41 40 40 40 40 38 37 41 43 41 48 54 56 52 53 51 50 48 45 43 45 43 43 42 43 46 44 43 43 42 43 43 43 44
54 52 49 48 47 48 47 46 43 42 40 38 39 38 36 37 38 43 46 48 48 53 54 51 47 45 46 43 43 43 41 41 41 41 41 41 41 40 40 41 40 41 42
53 52 49 48 47 47 45 43 42 40 39 38 39 36 36 34 37 41 45 46 44 43 48 48 47 43 39 38 38 39 39 39 39 39 39 40 40 39 39 38 38 39 40
50 50 48 48 47 44 44 41 41 40 37 38 36 36 36 33 33 31 40 42 40 38 37 41 42 40 39 38 37 36 36 37 38 39 38 39 38 38 38 38 37 37 38
49 49 47 47 45 42 41 40 41 41 41 40 32 35 35 34 32 32 31 29 32 34 33 33 32 34 37 35 33 33 34 37 38 38 39 39 39 38 37 36 37 38 38
48 48 45 45 44 42 42 43 40 40 39 40 37 36 34 35 34 30 31 30 29 30 33 32 30 28 28 34 33 32 33 34 34 35 35 35 36 36 36 36 37 37 38
47 47 46 44 43 41 42 42 41 39 39 40 35 34 31 32 32 30 30 29 33 29 28 29 31 31 30 27 32 33 33 32 34 34 35 35 35 36 35 36 37 37 37
46 45 45 43 41 38 38 41 41 40 36 38 38 33 28 26 32 33 32 29 32 30 30 30 30 30 31 30 28 29 32 34 35 35 34 35 36 36 36 36 37 37 38
45 41 39 40 40 39 40 40 40 41 40 36 38 35 38 36 28 26 32 32 31 29 32 30 29 30 30 29 30 32 34 34 35 35 35 36 36 36 36 36 36 37 37
40 38 39 41 40 39 42 43 43 41 40 37 36 37 37 35 34 30 25 27 28 29 29 30 30 29 30 30 30 30 32 32 33 34 34 35 36 36 36 36 36 36 37
38 39 38 39 40 41 42 42 42 42 39 38 37 37 34 31 29 29 27 27 28 28 29 30 30 29 30 29 24 28 29 29 29 29 31 32 33 34 34 35 35 36 36
36 38 38 39 40 42 42 41 41 41 40 38 38 36 36 34 33 32 30 28 27 27 28 29 29 30 26 28 27 26 26 26 26 27 28 30 31 32 33 33 34 35 36
35 38 37 39 40 41 41 41 40 40 41 40 39 38 36 36 36 34 31 30 28 25 27 30 30 30 27 27 25 26 22 24 25 26 28 29 29 30 30 30 32 32 34
35 38 39 38 38 38 39 41 38 39 41 42 40 39 38 36 35 35 34 32 31 27 22 24 27 29 28 27 23 24 23 22 25 26 26 27 28 29 29 30 30 31 31
36 38 38 37 36 36 36 37 37 38 39 40 39 38 37 34 35 35 32 32 31 30 26 23 25 27 26 18 20 23 20 23 23 24 26 27 27 28 28 28 28 29 30
37 36 37 36 35 36 35 36 36 36 38 39 38 35 35 35 33 34 33 32 31 30 26 23 23 23 22 21 20 19 18 18 18 22 24 25 26 27 26 26 27 27 28
37 36 36 34 33 34 35 35 35 34 37 36 33 34 33 31 35 35 33 32 30 29 26 21 20 18 20 21 20 18 14 14 18 19 23 25 25 26 26 27 27 28 28
37 36 34 34 34 35 34 34 34 34 33 33 33 33 33 34 33 32 31 29 28 24 23 21 17 18 20 19 16 15 15 18 13 19 21 22 24 25 26 27 28 28 29
35 35 35 34 34 33 33 36 38 34 34 33 34 34 33 33 32 31 30 29 25 23 20 19 17 17 17 17 16 12 13 15 14 14 20 22 23 24 25 26 28 28 28
35 35 35 35 34 35 37 40 36 34 34 33 34 32 33 33 33 32 27 26 23 21 19 18 17 16 15 14 10 14 14 14 16 17 18 19 19 19 21 23 24 26 27
35 34 33 35 37 39 38 36 35 34 33 33 32 32 31 33 33 32 30 28 24 22 21 19 17 16 16 15 13 16 17 15 13 17 17 16 18 18 18 20 23 26 27
36 38 39 40 40 40 35 35 34 32 33 33 32 31 29 25 27 25 29 32 28 25 25 22 20 18 19 14 15 15 15 16 15 16 18 16 17 17 18 17 25 26 27
40 40 40 40 38 34 35 34 33 32 32 32 32 31 30 29 26 25 23 24 24 24 24 20 20 20 17 15 18 18 20 19 16 15 16 15 17 19 20 22 26 26 28
40 39 38 37 37 38 34 33 32 32 32 32 31 30 29 28 29 28 24 23 22 21 22 23 23 25 22 23 24 22 20 18 19 13 14 17 17 19 21 23 25 25 28
38 37 36 36 35 32 32 32 32 33 33 32 31 28 29 27 29 29 28 27 24 20 20 19 20 19 21 21 23 23 18 19 18 16 14 17 17 18 19 20 24 27 28

GFSMA_sfc_dewp_036.txt.gz
Dewpoint
58 56 54 52 51 50 50 49 47 46 46 45 44 42 39 39 38 33 36 55 55 54 51 55 54 52 49 48 50 45 45 44 43 44 47 45 44 44 43 44 44 44 44
58 55 54 51 50 49 49 48 46 44 43 43 42 39 36 34 38 40 36 44 54 56 52 54 53 51 48 45 42 43 44 42 42 42 43 43 41 42 41 41 41 41 42
58 56 53 51 50 50 50 48 46 45 43 39 37 36 35 37 36 38 38 39 44 53 55 51 48 46 46 43 42 41 41 40 40 40 40 42 42 41 40 40 39 39 39
57 56 53 51 50 49 47 45 44 42 40 37 38 35 36 36 37 38 40 40 39 37 49 48 46 43 41 40 40 40 39 38 38 40 40 40 40 40 38 39 39 38 38
55 54 52 51 51 47 47 44 43 41 37 36 33 36 37 36 36 31 39 41 42 40 40 42 42 42 40 38 37 36 37 38 39 40 40 41 41 41 40 40 38 38 39
54 54 52 52 48 45 45 43 42 39 36 36 26 32 36 35 34 35 34 30 35 38 36 36 34 34 36 34 32 32 34 35 37 37 37 37 38 38 38 38 37 38 39
53 53 50 49 47 45 45 45 40 37 37 39 36 36 36 37 36 33 33 32 31 31 34 31 30 28 31 32 31 33 33 34 34 35 36 36 36 37 37 38 38 37 38
52 51 50 48 47 45 46 44 39 38 39 38 37 33 31 32 34 34 32 31 35 30 29 30 31 31 30 27 31 29 31 32 34 36 36 36 36 37 37 38 38 38 38
50 48 50 48 48 45 42 41 40 41 39 39 40 31 27 28 30 32 35 32 34 32 31 30 31 30 31 30 30 29 33 34 35 36 37 37 38 38 38 38 38 38 38
50 47 48 48 46 42 40 39 40 42 41 38 38 33 36 32 22 25 32 33 34 32 33 32 30 31 31 30 30 31 34 34 34 35 36 37 37 37 37 37 37 37 37
50 47 46 45 44 40 40 42 43 42 41 36 33 36 35 33 34 29 24 23 26 27 29 30 31 32 31 31 30 33 29 30 31 32 32 33 34 34 35 35 36 36 36
49 46 42 43 43 40 42 45 44 44 39 37 34 34 31 30 28 27 26 26 26 28 28 29 31 30 30 30 28 28 27 29 28 29 30 30 31 33 34 35 35 36 36
46 45 44 42 40 41 45 43 44 41 40 37 37 33 34 31 29 28 27 27 26 26 27 29 29 29 27 30 30 27 29 31 26 27 28 29 30 32 33 33 34 34 35
44 45 42 41 40 43 42 43 39 43 40 38 39 37 32 32 32 31 29 28 27 25 25 28 28 28 28 28 30 28 27 31 28 26 26 28 29 29 31 32 32 33 33
45 43 42 41 42 41 42 40 39 39 38 41 40 38 35 32 33 32 31 30 29 27 23 24 23 27 28 28 29 27 25 28 26 25 26 26 29 29 30 30 31 31 31
46 42 42 40 41 41 39 39 39 37 39 40 36 36 35 32 31 31 28 29 29 28 26 24 22 25 27 22 26 24 24 26 26 27 24 25 26 27 28 29 29 29 29
46 42 41 40 38 38 36 37 35 36 36 35 36 35 33 33 31 30 30 29 28 27 25 24 22 23 26 26 24 23 23 20 18 25 24 24 24 26 27 27 27 28 29
46 42 41 38 38 35 34 34 35 31 35 36 34 35 33 29 33 33 30 31 29 28 25 24 24 22 23 23 23 23 17 12 15 21 22 23 24 24 26 27 27 28 28
46 43 39 36 35 35 34 35 34 36 39 37 33 32 32 33 33 32 31 30 28 24 26 24 22 22 21 20 20 20 18 18 12 19 24 26 22 24 25 26 27 28 29
45 41 38 37 37 33 33 35 40 42 40 35 34 34 33 33 33 32 30 31 28 27 25 23 21 20 18 18 18 16 13 14 13 11 19 24 24 24 26 26 26 27 28
39 37 37 37 37 36 36 42 42 40 40 37 35 33 34 35 35 34 28 30 29 26 24 22 21 19 16 15 15 15 12 14 17 17 15 17 17 17 20 24 25 27 26
36 36 36 36 36 38 39 38 38 39 39 34 33 34 34 36 35 35 34 33 31 28 26 24 22 19 18 17 18 15 15 15 13 16 16 15 17 16 17 18 27 27 26
37 38 39 38 39 38 38 38 37 35 37 35 33 32 30 26 31 32 33 33 30 29 27 26 24 21 20 19 19 15 15 15 15 17 17 14 17 15 17 15 27 29 29
40 40 39 38 38 39 38 37 36 39 35 33 32 31 31 30 30 31 30 30 29 28 28 22 24 22 21 21 19 16 20 19 18 17 16 15 17 17 19 20 27 29 27
40 39 39 39 39 38 37 37 34 33 30 30 29 30 30 30 31 34 30 29 28 28 28 30 29 28 26 24 21 20 22 20 22 14 15 16 17 17 19 21 24 29 29
39 38 37 37 36 38 35 34 33 32 31 32 31 30 31 31 31 32 31 30 29 27 26 24 22 24 25 25 25 23 20 21 20 18 17 17 15 17 18 20 23 24 29